Regional Weather Roundup
Issued by NWS Cleveland, OH

Home | Current Version | Previous Version | Text Only | Print | Product List | Glossary Off
Versions: 1 2 3 4 5 6 7 8 9 10 11 12 13 14 15 16 17 18 19 20 21 22 23 24 25 26 27 28 29 30 31 32 33 34 35 36 37 38 39 40 41 42 43 44 45 46 47 48 49 50

805
ASUS41 KCLE 200700
RWRCLE
OHIO REGIONAL WEATHER ROUNDUP
NATIONAL WEATHER SERVICE WILMINGTON, OH
300 AM EDT WED SEP 20 2017

NOTE: "FAIR" INDICATES FEW OR NO CLOUDS BELOW 12,000 FEET WITH NO
SIGNIFICANT WEATHER AND/OR OBSTRUCTIONS TO VISIBILITY.

OHZ001>008-015>018-024>027-034-035-043-044-200800-
   NORTHWEST OHIO

CITY           SKY/WX    TMP DP  RH WIND       PRES   REMARKS
DEFIANCE       FOG       65  64  97 CALM      29.95S VSB 1/2
FINDLAY        FAIR      67  64  90 SE3       29.95F
TOLEDO EXPRESS FOG       65  32  29 CALM      29.95S VSB 3/4
TOLEDO EXEC    MOCLDY    67  65  93 SE3       29.96F FOG
LIMA           FAIR      66  66 100 S5        29.96S
$$

OHZ009>014-019>023-028>033-038-089-200800-
   NORTHEAST OHIO

CITY           SKY/WX    TMP DP  RH WIND       PRES   REMARKS
CLE-HOPKINS    CLOUDY    70  65  84 SW5       29.99F
CLE-LAKEFRONT  CLOUDY    70  63  78 S6        29.96S
CUY CO. ARPT   NOT AVBL
LORAIN-ELYRIA  FOG       64  60  87 CALM      29.98F VSB 1
ASHTABULA      CLOUDY    63  63 100 CALM      29.99F
AKRON-CANTON   FAIR      68  63  84 SW5       29.99S
WOOSTER        CLOUDY    64  64 100 CALM      29.99F
MANSFIELD      MOCLDY    67  64  90 CALM      29.99F
YOUNGSTOWN     CLOUDY    66  65  96 CALM      29.99S
$$

OHZ042-051>053-060>062-070>072-077>081-200800-
  SOUTHWEST OHIO

CITY           SKY/WX    TMP DP  RH WIND       PRES   REMARKS
CINC-COVINGTON FAIR      66  66 100 CALM      29.97F FOG
CINC-LUNKEN    FOG       65  65 100 CALM      29.97F VSB 1/4
HAMILTON       FAIR      62  62 100 CALM      29.97F
DAYTON         NOT AVBL
WRIGHT-PAT AFB   N/A     63  63 100 CALM      29.97S
DAYTON GENERAL FAIR      65  64  97 CALM      29.97S FOG
WILMINGTON     FOG       63  63 100 CALM      29.98S VSB 1/4
$$

OHZ036-037-039>041-045>050-054>059-063>069-073>076-082>088-200800-
  CENTRAL AND SOUTHEAST OHIO

CITY           SKY/WX    TMP DP  RH WIND       PRES   REMARKS
COLUMBUS       CLOUDY    70  68  93 CALM      29.97S
OSU AIRPORT    CLOUDY    68  68 100 CALM      29.97F
BOLTON FIELD   NOT AVBL
RICKENBACK AFB NOT AVBL
NEWARK         FOG       65  64  97 CALM      29.98S VSB 1/2
MARION         FAIR      64  61  90 CALM      29.98F
LANCASTER      MOCLDY    64  63  96 CALM      29.98S FOG
ZANESVILLE     FOG       64  63  96 CALM      29.98S VSB 1/4
NEW PHILLY     MOCLDY    67  66  97 CALM      29.99S FOG
$$




USA.gov is the U.S. government's official web portal to all federal, state and local government web resources and services.